Torna al catalogo

STARLINK-31487

AttivoComunicazioniVLEO
NORAD 59297·PAYLOAD·🇺🇸 United States

Lanciato Mar 24, 2024 da Cape Canaveral Space Force Station

Loading…

Prossimi Passaggi (prossime 24 ore)

TLE

AggiornatoSource: CelesTrak SupGP

Epoca: Sep 14, 2026, 21:28 UTC

1 59297C 24056B   26257.89493056  .00030249  00000+0  10967-2 0  2574
2 59297  43.0000 242.3906 0001371 262.9234 265.4341 15.27530033    12

Traccia STARLINK-31487 in tempo reale con AllMySat

Download on the App Store